Temperature
22 22 22 22 22 23 23 24 24 24 24 24 24 24 23 22 21 19 18 18 18 17 17 17 17 17 17 17 17 17 17 17 17 17 17 17 17 17 17 17 18 17 17 18 18 18 18 18 18
22 22 22 23 23 23 23 24 24 24 24 24 24 23 23 21 20 18 18 18 18 17 17 17 17 17 17 17 17 17 17 17 17 17 17 17 17 17 17 17 17 17 17 17 18 18 18 18 18
22 23 23 23 23 23 23 24 24 25 24 24 24 23 22 20 19 18 18 18 18 17 17 17 17 17 17 17 17 17 17 17 17 17 17 17 17 17 17 17 17 17 17 17 17 17 18 18 18
22 23 24 24 23 24 24 24 25 25 25 24 24 22 20 20 19 18 18 18 17 17 17 17 17 17 17 17 17 17 17 17 17 17 17 17 17 17 17 17 17 17 17 17 17 17 17 17 18
23 24 23 23 23 24 25 25 25 25 25 24 23 21 20 19 19 18 18 18 17 17 17 17 17 17 17 17 17 17 17 17 17 17 17 17 17 17 17 17 17 17 17 17 17 17 17 17 17
24 24 23 23 23 24 25 25 25 25 24 24 23 21 19 19 19 18 18 18 18 17 17 17 17 17 17 17 17 17 17 17 17 17 17 16 17 17 17 17 17 17 17 17 17 17 17 17 17
24 23 23 23 23 24 25 25 25 24 24 24 23 22 20 19 19 19 18 18 18 17 17 17 17 17 17 17 17 17 17 17 17 16 16 16 16 16 17 17 17 17 17 17 17 17 17 17 17
25 24 24 24 23 23 25 25 24 24 23 23 23 22 20 19 19 19 18 18 18 18 17 17 17 17 17 17 17 17 17 16 16 16 16 16 16 16 16 16 16 17 17 17 17 17 17 17 17
25 24 23 24 23 24 24 24 24 24 23 23 22 21 20 19 19 19 19 18 18 18 17 17 17 17 17 17 17 16 16 16 16 16 16 16 16 16 16 16 16 16 16 16 16 16 16 16 16
25 23 24 25 25 24 24 24 24 24 23 22 21 20 20 19 19 19 19 18 18 18 18 17 17 17 17 16 16 16 16 16 16 16 16 16 16 16 16 16 16 16 16 16 16 16 16 16 16
25 24 25 25 25 25 24 24 24 24 22 22 21 20 20 19 19 19 19 19 18 18 18 18 17 17 17 17 16 16 16 16 16 16 16 16 16 16 16 16 16 16 15 16 16 16 16 16 16
25 25 25 25 24 24 24 24 24 23 23 22 21 21 20 20 19 19 19 19 18 18 18 18 17 17 17 17 16 16 16 16 16 16 16 16 16 16 16 15 15 15 15 15 15 15 15 15 15
25 25 25 25 24 24 24 24 23 23 22 22 21 21 20 20 20 19 19 19 18 18 18 17 17 17 17 17 16 16 16 16 16 16 16 16 16 16 15 15 15 15 15 15 15 15 15 15 15
25 25 25 25 24 24 24 24 23 23 22 22 21 21 20 20 20 20 19 19 18 18 18 17 17 17 17 16 16 16 16 16 16 16 16 16 16 15 15 15 15 15 15 15 15 15 15 15 15
25 25 24 24 24 24 24 23 23 23 22 22 22 21 21 20 20 20 19 19 19 18 18 17 17 17 17 17 16 16 16 16 16 16 16 16 15 15 15 15 15 15 15 15 15 15 15 15 15
25 24 23 24 25 24 23 22 23 23 22 22 22 21 21 20 20 20 19 19 19 18 18 17 17 17 16 16 16 16 16 16 16 16 16 16 15 15 15 15 15 15 15 15 15 15 15 15 15
24 23 23 24 25 25 24 22 23 22 22 22 22 22 21 21 20 20 19 19 18 18 18 17 17 17 16 16 16 16 16 15 15 15 15 15 15 15 15 15 15 15 15 15 15 15 15 14 14
24 24 24 24 25 25 24 23 23 23 23 23 22 22 22 21 20 20 19 18 18 18 18 17 17 17 16 16 16 16 16 15 15 15 15 15 15 15 15 15 14 14 14 14 14 14 14 14 14
25 25 25 25 25 25 24 24 23 23 23 23 23 22 22 21 20 20 19 18 18 17 17 17 17 16 16 16 15 15 15 15 15 15 15 15 15 15 14 14 14 14 14 14 14 14 14 14 14
25 24 24 25 25 25 24 24 24 23 23 23 22 22 22 21 20 19 18 18 17 17 17 17 17 16 16 15 15 15 15 14 14 14 14 14 14 14 14 14 14 14 14 14 14 14 14 14 14
25 24 24 24 25 25 24 23 23 23 23 23 22 22 22 21 20 19 18 18 17 17 17 17 16 16 15 15 15 14 14 14 14 14 14 14 14 14 14 14 14 14 14 14 13 13 13 13 13
24 25 25 24 23 23 23 22 23 23 23 23 22 22 22 21 20 19 18 17 17 17 16 16 16 16 15 15 15 14 14 14 13 13 13 13 13 13 13 13 13 13 13 13 13 13 13 13 13
25 25 25 24 23 23 24 23 23 23 22 22 22 22 21 21 20 19 18 17 17 16 16 16 16 15 15 15 14 14 13 13 13 13 13 13 13 13 13 13 13 13 13 13 13 13 13 13 13
25 24 24 24 23 22 23 23 23 22 22 22 22 22 21 20 20 19 18 17 16 16 16 16 15 15 15 14 14 14 13 13 13 13 13 12 12 12 12 12 12 12 12 12 13 12 12 12 12
24 23 22 21 21 22 24 24 23 23 23 23 22 22 21 20 19 18 17 17 16 16 15 15 15 15 14 14 14 13 13 13 13 12 12 12 12 12 12 12 12 12 12 12 12 12 12 12 12
24 23 22 21 22 23 24 23 23 23 23 23 22 22 20 19 19 18 17 16 16 16 15 15 15 14 14 14 14 13 13 13 12 12 12 12 12 12 12 12 12 12 12 12 12 12 11 11 11
23 24 24 23 23 22 23 23 23 23 23 23 22 21 20 19 18 18 17 16 16 15 15 15 14 14 14 14 13 13 13 13 12 12 12 11 11 11 11 11 11 11 11 11 11 11 11 11 11
24 23 23 22 21 21 23 23 22 22 22 22 22 21 20 19 18 18 17 16 16 15 15 14 14 14 14 13 13 13 13 12 12 12 11 11 11 11 11 11 11 11 11 11 11 11 11 11 11
23 23 23 22 22 21 21 22 23 23 22 22 21 21 20 19 18 18 17 16 16 15 15 14 14 14 13 13 13 12 12 12 12 11 11 11 11 11 11 11 11 11 11 11 11 11 11 11 11
23 23 22 21 21 22 21 21 24 23 23 22 21 20 19 19 18 17 17 16 15 15 14 14 14 14 13 13 12 12 12 12 11 11 11 11 11 11 11 11 10 10 10 10 10 10 10 10 10
Wind_Speed
10 11 8 3 2 1 7 7 8 8 7 8 9 10 12 13 9 7 3 4 7 10 11 11 11 12 11 11 11 12 11 12 12 12 12 12 11 11 11 11 11 12 12 12 12 12 11 11 10
10 6 4 3 1 3 6 7 9 9 7 6 8 11 12 12 11 8 4 4 8 11 12 12 11 11 11 11 11 11 11 12 12 12 12 12 12 12 12 11 11 12 12 12 11 11 11 11 9
11 7 3 2 3 5 6 8 8 9 7 7 8 10 9 7 8 5 5 5 9 11 13 12 11 11 11 11 12 12 11 11 11 11 11 11 11 12 12 12 11 11 12 12 12 12 11 11 10
5 3 2 2 9 8 7 7 7 8 7 8 9 9 9 9 7 7 6 7 9 11 13 12 11 11 11 11 11 11 11 11 11 11 11 11 11 11 12 12 12 12 12 12 12 12 11 11 9
4 3 1 5 8 8 7 8 7 8 8 10 11 11 10 10 9 9 7 8 9 10 12 12 11 11 11 11 11 11 10 10 10 10 10 11 11 11 12 12 12 12 12 12 12 11 11 10 9
3 2 1 5 8 7 6 6 6 8 9 9 10 11 8 8 7 7 8 7 9 9 10 12 11 11 11 10 10 10 10 10 10 10 9 10 10 10 10 10 10 11 10 10 10 10 10 9 8
3 1 2 6 5 5 5 6 7 8 8 7 7 9 8 8 6 7 8 8 8 8 7 9 10 10 10 10 9 9 9 8 8 8 8 8 8 9 9 9 9 9 9 9 9 9 8 8 7
3 1 2 4 4 5 5 6 7 7 6 7 6 7 7 7 6 7 8 7 6 6 6 6 7 9 9 9 8 8 8 7 6 6 6 6 6 7 8 9 8 8 8 8 8 7 6 6 5
3 1 2 2 4 5 5 6 6 6 8 9 10 11 10 10 8 7 7 6 5 5 5 5 5 6 7 8 8 7 6 6 5 3 4 4 4 5 7 8 7 7 6 6 5 5 4 3 2
1 1 2 2 5 6 6 5 4 6 7 8 10 12 11 8 8 7 6 6 6 4 4 5 3 4 5 5 6 5 4 5 3 3 4 3 4 5 7 8 6 5 4 3 2 2 1 1 1
1 2 3 3 6 6 5 5 4 6 5 7 9 10 9 8 6 5 5 5 6 5 4 4 3 3 4 3 3 2 3 3 2 3 4 4 4 5 6 5 5 3 3 2 1 1 1 2 3
2 3 3 4 5 4 4 4 4 6 5 8 9 10 9 7 6 5 5 6 5 6 5 4 3 4 4 3 2 2 2 2 2 3 5 3 2 2 2 3 3 3 2 1 1 0 2 3 3
3 3 4 5 5 4 4 5 4 6 7 8 8 9 8 7 5 5 5 6 6 5 5 4 4 4 3 2 1 2 2 2 3 4 4 3 2 1 1 2 3 3 3 2 2 3 4 4 4
2 4 5 5 5 4 5 5 3 5 7 8 8 7 7 6 5 5 5 6 6 5 5 4 4 3 3 3 2 2 3 3 3 3 4 4 3 2 2 2 2 2 3 3 3 3 3 3 4
4 4 5 6 6 5 5 4 5 7 8 7 7 7 6 6 5 5 5 5 5 5 4 5 4 3 4 4 3 3 3 4 3 3 4 5 4 4 3 2 2 2 3 4 4 4 4 3 3
7 7 6 6 7 6 6 4 6 7 7 7 6 7 7 5 5 5 5 5 4 4 5 5 4 4 5 5 4 3 4 4 3 4 4 4 4 5 4 3 2 3 4 3 3 3 3 3 4
7 8 7 7 7 7 7 4 7 8 7 7 7 7 8 7 6 5 6 5 4 4 5 5 5 5 5 4 3 3 3 3 4 5 5 6 6 5 4 2 2 4 3 3 2 3 2 3 2
6 6 6 6 8 8 7 5 9 10 9 8 8 7 7 7 6 6 6 5 5 3 4 5 5 4 4 3 3 3 4 3 4 4 5 6 5 5 4 2 2 3 3 2 3 3 3 2 1
7 6 5 3 6 6 7 6 8 10 9 7 7 7 7 7 7 7 7 6 5 4 3 4 4 4 4 2 2 3 2 3 3 3 5 5 6 6 4 2 2 3 2 2 2 2 2 1 1
7 8 6 3 4 5 6 7 7 9 9 7 6 6 6 7 8 8 8 6 5 4 3 4 4 4 4 3 2 2 2 2 2 2 4 5 5 6 4 3 2 2 2 2 2 2 1 1 1
8 8 6 4 3 6 6 6 8 9 9 8 6 5 5 6 7 8 7 6 5 4 3 4 4 5 4 3 3 3 3 2 2 2 2 3 4 4 3 3 2 2 2 1 1 2 1 0 1
7 5 5 5 5 5 7 5 7 9 8 9 7 5 5 6 7 8 7 7 5 4 3 4 5 5 4 4 4 3 3 2 1 1 2 2 4 4 4 3 3 2 2 1 1 2 1 1 1
5 4 6 8 8 9 9 7 4 10 9 9 8 6 5 7 8 8 8 7 5 4 3 3 5 5 5 4 4 3 3 2 1 2 2 2 2 3 4 4 3 2 2 2 2 2 1 1 1
4 5 8 8 7 9 10 8 3 7 8 8 9 8 7 7 8 8 8 7 6 5 4 4 5 5 5 4 4 3 3 2 3 2 2 2 2 2 3 3 3 2 2 2 1 1 1 0 1
7 6 3 4 6 5 5 5 2 7 6 6 8 8 7 7 7 7 8 7 6 7 5 4 5 5 4 4 3 3 3 2 2 1 1 1 1 1 2 2 1 2 1 1 1 1 1 0 0
7 8 5 4 4 2 3 3 4 9 8 6 7 7 8 7 7 7 8 7 6 6 5 4 5 4 4 3 2 2 3 2 2 2 2 2 1 1 1 1 1 2 2 1 1 1 1 1 1
6 7 6 7 10 6 3 3 7 8 8 7 7 7 8 8 7 7 8 7 7 6 5 4 4 4 4 3 2 2 3 2 2 2 2 1 1 1 2 1 1 1 1 1 1 1 1 1 1
7 6 5 4 4 5 5 3 4 10 9 7 7 7 7 7 8 7 7 7 7 6 5 4 4 4 4 3 2 2 2 2 2 2 2 2 2 2 1 1 1 1 1 1 1 1 1 1 0
7 7 6 5 6 4 3 1 3 7 8 7 6 7 6 6 6 6 7 7 7 7 6 5 4 4 3 3 3 3 2 2 2 2 2 1 1 1 1 1 1 1 1 1 1 1 1 1 1
5 7 7 5 6 5 5 1 5 6 6 7 6 6 6 5 5 5 6 6 6 6 6 5 4 4 3 3 3 3 3 3 2 2 2 1 1 1 1 1 2 1 1 1 1 1 0 0 1
Wind_Direction
266 251 251 255 265 116 74 68 68 63 63 54 53 65 66 55 54 85 102 66 86 92 89 77 67 68 67 64 65 64 62 63 63 63 64 65 66 67 69 69 69 68 70 72 74 72 74 76 78
277 276 274 248 247 95 78 79 74 66 74 80 70 70 72 66 73 94 95 71 85 91 87 79 73 73 70 67 67 67 66 66 65 64 64 65 66 66 67 69 70 69 70 71 76 75 76 79 82
269 270 268 268 46 73 86 86 91 84 75 76 74 63 58 66 77 89 106 97 87 89 89 85 79 77 75 72 71 71 68 68 67 68 68 67 66 66 65 65 69 72 72 72 75 76 74 76 80
272 261 249 78 75 72 88 97 99 94 78 72 79 76 68 58 75 101 113 99 92 94 96 93 85 81 79 76 74 73 71 70 70 72 71 69 68 67 65 65 68 71 72 71 71 72 70 70 73
241 261 136 91 84 77 76 85 91 89 83 74 82 89 84 75 89 105 104 96 95 95 101 104 95 90 85 80 76 73 73 73 73 75 76 72 71 70 67 68 71 71 72 72 72 70 68 68 64
266 264 123 102 96 86 83 86 87 84 83 84 98 100 94 98 95 104 101 99 101 104 107 113 109 102 94 88 82 78 77 77 75 76 77 77 77 76 74 72 73 72 72 74 73 70 68 67 62
277 291 117 109 109 98 79 70 77 80 74 70 87 101 107 101 104 107 103 96 100 109 113 119 127 120 109 101 94 90 86 83 82 82 84 86 85 83 81 79 76 74 74 74 75 74 70 67 61
279 306 108 115 123 104 95 86 80 83 80 68 68 97 114 122 122 113 109 104 99 104 114 121 122 126 127 119 112 110 103 98 96 95 100 102 101 96 92 88 83 80 81 80 78 77 73 67 58
276 225 129 107 122 112 112 102 94 95 90 79 72 87 115 131 128 122 116 106 102 101 102 102 112 123 123 123 127 136 129 124 128 138 134 126 118 110 106 99 100 94 91 92 90 87 83 70 51
220 77 102 96 117 126 126 119 128 118 102 92 89 98 114 126 128 131 129 129 125 118 108 99 98 103 106 106 127 146 136 139 140 136 137 136 119 108 106 119 119 114 111 110 116 118 134 157 88
138 128 121 92 103 121 131 131 124 122 110 112 117 121 128 125 122 128 131 123 118 110 96 96 96 89 90 88 108 100 98 113 112 108 101 96 111 123 125 140 136 143 136 129 135 179 183 99 74
153 117 132 118 116 133 133 124 111 96 103 115 123 128 130 128 134 131 119 109 104 101 94 87 85 85 76 78 84 88 70 88 78 66 87 81 76 84 113 129 132 132 119 119 114 143 87 78 70
163 144 129 126 143 143 139 125 112 112 112 118 125 129 132 134 138 128 120 115 107 104 103 85 73 86 86 75 51 96 77 62 60 42 66 80 84 78 102 88 87 87 88 73 47 48 49 44 53
146 146 147 147 152 160 150 140 152 138 142 140 139 139 141 142 138 129 116 107 110 110 108 105 97 90 90 91 72 52 60 66 71 46 48 64 69 57 69 75 77 68 66 68 71 63 51 46 47
171 177 176 182 187 181 172 174 179 156 155 156 154 146 144 142 137 127 120 116 113 112 109 107 105 99 93 88 76 72 61 58 56 51 44 51 59 57 58 56 58 66 53 55 61 55 51 46 49
211 213 210 196 193 185 204 207 173 163 168 164 162 156 150 148 146 133 118 107 107 112 106 98 87 79 73 68 62 67 64 59 46 44 34 45 58 63 58 51 46 62 70 63 62 55 46 38 41
232 226 216 187 195 187 209 199 172 178 186 177 175 171 162 161 151 136 124 116 104 101 106 104 89 82 81 80 80 60 64 57 49 45 36 32 41 58 69 56 49 53 60 56 65 67 60 54 43
243 231 225 196 185 198 213 200 177 181 195 192 180 178 168 160 150 140 126 113 105 95 98 102 100 93 86 69 76 70 56 50 48 42 39 31 41 54 72 77 59 66 67 54 62 72 58 58 22
279 268 254 209 173 206 224 217 191 179 193 197 189 184 175 161 147 136 126 119 117 110 108 103 113 105 95 81 66 73 66 51 45 38 33 26 33 37 49 63 60 70 73 74 72 78 80 59 44
268 270 267 213 191 225 239 234 206 185 189 196 203 190 176 160 150 139 129 129 132 127 126 109 103 99 90 81 85 94 90 80 74 39 32 26 35 37 38 51 46 54 63 63 72 81 62 15 36
247 258 263 272 239 238 253 247 217 188 184 187 202 194 174 164 153 140 136 136 136 133 136 116 105 98 94 89 75 72 70 61 52 42 27 14 34 45 46 49 56 42 59 90 96 96 100 31 324
257 268 275 264 255 254 232 252 217 189 181 180 183 191 171 151 140 139 138 135 137 133 132 120 108 101 97 95 89 91 85 75 53 48 37 22 32 38 35 46 55 53 34 64 70 79 76 72 330
277 296 275 260 256 265 245 252 217 169 177 184 182 180 169 145 142 141 136 130 126 124 124 110 104 99 94 94 97 95 89 90 77 60 51 44 35 35 37 37 46 50 41 50 55 69 61 42 29
279 266 259 254 253 255 243 233 234 171 177 178 172 171 161 145 139 134 130 129 123 118 117 110 107 102 106 108 112 108 102 96 83 58 57 52 48 35 47 44 31 34 40 40 47 55 74 57 34
229 249 253 226 217 237 219 221 192 131 143 155 160 159 151 141 135 132 132 136 132 128 129 125 117 111 112 115 116 117 119 121 114 91 73 59 53 39 36 41 22 14 27 41 47 41 46 56 89
229 239 259 276 266 281 225 223 118 115 119 131 142 146 143 138 136 138 137 138 135 129 128 128 124 124 123 122 116 110 111 102 98 88 77 64 61 52 32 19 22 14 16 42 54 26 17 41 23
254 247 270 286 291 287 237 166 125 132 134 133 140 140 145 146 144 143 139 144 139 135 135 138 141 137 134 142 136 115 103 93 96 96 83 72 47 27 32 8 12 12 356 29 98 81 10 60 38
265 294 284 263 279 279 268 242 168 157 146 145 147 145 145 146 148 144 142 142 138 137 140 148 149 151 147 152 152 116 106 110 100 97 92 85 70 32 3 2 7 353 351 16 56 98 84 73 329
221 240 259 273 268 274 287 12 94 137 143 148 144 142 145 146 145 145 147 146 144 145 153 164 163 153 153 150 143 137 134 128 109 95 92 70 71 69 23 360 348 349 8 360 58 48 69 86 302
240 247 253 258 274 280 283 289 105 110 119 131 134 134 137 139 137 140 142 144 148 154 160 164 166 161 158 151 153 151 143 140 133 125 119 99 47 19 16 5 4 2 359 355 66 357 4 195 257
Height
1487 1487 1487 1489 1490 1493 1497 1494 1490 1491 1492 1494 1494 1494 1498 1502 1507 1518 1518 1516 1516 1514 1513 1512 1511 1511 1510 1510 1510 1510 1511 1511 1511 1511 1511 1511 1511 1511 1511 1511 1511 1512 1512 1512 1512 1511 1511 1512 1512
1487 1488 1489 1489 1492 1501 1502 1494 1494 1494 1495 1495 1496 1498 1501 1506 1510 1514 1516 1517 1516 1515 1514 1513 1513 1512 1512 1512 1512 1512 1512 1512 1512 1512 1513 1513 1513 1513 1513 1513 1513 1513 1513 1513 1513 1513 1513 1513 1514
1488 1489 1490 1488 1492 1499 1501 1494 1494 1495 1495 1496 1498 1501 1505 1510 1513 1515 1517 1517 1517 1516 1515 1515 1514 1514 1513 1513 1513 1513 1514 1513 1513 1513 1514 1514 1514 1514 1514 1514 1514 1515 1515 1515 1515 1515 1514 1515 1515
1490 1490 1489 1491 1497 1494 1493 1493 1494 1495 1496 1497 1499 1505 1510 1513 1515 1516 1517 1518 1518 1517 1516 1516 1516 1515 1515 1515 1515 1515 1515 1515 1515 1515 1515 1515 1516 1516 1516 1516 1516 1516 1516 1516 1516 1516 1516 1516 1516
1490 1490 1491 1496 1497 1494 1493 1494 1495 1496 1497 1500 1502 1508 1513 1516 1516 1517 1518 1518 1519 1518 1518 1517 1517 1517 1516 1516 1516 1516 1516 1516 1516 1517 1517 1517 1517 1517 1517 1517 1517 1517 1517 1518 1518 1518 1518 1518 1518
1491 1488 1497 1502 1499 1495 1494 1495 1496 1497 1500 1502 1504 1509 1515 1517 1517 1518 1519 1520 1520 1520 1519 1519 1519 1518 1518 1518 1518 1518 1518 1518 1518 1518 1518 1518 1519 1519 1519 1519 1519 1519 1519 1519 1519 1519 1519 1520 1520
1491 1491 1495 1498 1501 1499 1497 1497 1498 1500 1502 1504 1505 1509 1515 1517 1518 1519 1520 1520 1521 1521 1520 1520 1520 1519 1520 1520 1519 1519 1519 1519 1519 1519 1520 1520 1520 1520 1520 1520 1520 1520 1520 1520 1521 1521 1521 1521 1522
1490 1490 1494 1497 1501 1501 1498 1499 1500 1502 1504 1506 1507 1510 1515 1518 1519 1519 1520 1521 1522 1522 1522 1521 1521 1521 1521 1521 1521 1521 1521 1521 1521 1521 1521 1521 1521 1521 1522 1522 1522 1522 1522 1522 1522 1522 1523 1523 1523
1490 1494 1498 1497 1498 1500 1499 1500 1503 1504 1506 1507 1509 1511 1515 1517 1519 1520 1521 1522 1522 1523 1523 1523 1523 1522 1522 1522 1522 1522 1522 1522 1522 1522 1523 1523 1523 1523 1523 1523 1523 1523 1523 1523 1524 1524 1524 1525 1525
1490 1496 1496 1493 1493 1497 1499 1501 1503 1505 1507 1509 1512 1514 1516 1517 1519 1520 1521 1521 1522 1523 1523 1523 1523 1524 1524 1524 1523 1523 1524 1523 1523 1524 1524 1524 1524 1525 1525 1524 1524 1524 1524 1524 1525 1525 1526 1526 1526
1489 1493 1492 1493 1494 1497 1499 1501 1503 1504 1508 1510 1512 1514 1516 1518 1519 1520 1521 1521 1522 1523 1524 1524 1524 1524 1524 1524 1524 1524 1525 1524 1525 1525 1525 1525 1525 1526 1526 1526 1525 1525 1526 1526 1526 1527 1527 1528 1528
1490 1491 1492 1494 1496 1498 1499 1501 1503 1505 1509 1510 1512 1514 1516 1517 1519 1520 1521 1522 1523 1523 1524 1524 1525 1524 1525 1524 1525 1525 1525 1525 1525 1525 1526 1526 1526 1526 1527 1527 1527 1527 1527 1527 1527 1528 1528 1529 1529
1490 1492 1493 1495 1497 1499 1500 1502 1504 1507 1509 1511 1513 1514 1516 1517 1519 1520 1521 1522 1523 1523 1524 1525 1525 1525 1524 1525 1525 1525 1525 1525 1526 1526 1526 1526 1527 1527 1527 1527 1528 1528 1528 1528 1528 1528 1529 1529 1530
1490 1492 1494 1496 1497 1499 1500 1503 1505 1507 1509 1511 1513 1514 1516 1517 1519 1520 1521 1521 1522 1523 1524 1524 1525 1525 1525 1525 1525 1525 1526 1526 1526 1526 1527 1527 1527 1527 1527 1528 1528 1528 1528 1529 1529 1529 1530 1530 1530
1491 1493 1495 1495 1496 1498 1500 1504 1504 1506 1508 1510 1512 1514 1516 1517 1518 1519 1520 1521 1522 1523 1524 1524 1525 1525 1525 1525 1525 1525 1525 1525 1526 1526 1527 1527 1527 1527 1527 1528 1528 1528 1529 1529 1529 1530 1530 1530 1531
1489 1493 1499 1494 1494 1496 1502 1507 1502 1504 1506 1508 1510 1512 1514 1516 1517 1519 1520 1521 1521 1522 1523 1523 1524 1525 1525 1525 1525 1525 1525 1526 1526 1526 1526 1527 1527 1527 1527 1527 1528 1528 1529 1529 1529 1530 1530 1530 1531
1491 1496 1496 1494 1491 1493 1498 1502 1501 1502 1505 1506 1509 1510 1513 1515 1516 1518 1519 1520 1521 1521 1522 1523 1524 1524 1524 1525 1525 1525 1525 1525 1526 1526 1526 1526 1526 1526 1527 1527 1528 1528 1528 1529 1529 1529 1530 1530 1531
1493 1491 1491 1492 1489 1490 1495 1497 1497 1499 1502 1504 1506 1508 1510 1512 1514 1516 1518 1519 1520 1521 1522 1522 1523 1523 1524 1524 1524 1524 1525 1525 1525 1525 1525 1525 1526 1526 1526 1527 1527 1528 1528 1528 1529 1529 1530 1530 1530
1484 1487 1489 1487 1484 1489 1492 1494 1494 1497 1499 1501 1503 1505 1507 1510 1512 1514 1516 1518 1519 1520 1522 1522 1522 1522 1523 1523 1523 1523 1523 1524 1524 1524 1524 1524 1525 1525 1526 1526 1527 1527 1527 1528 1528 1529 1529 1530 1530
1485 1488 1488 1485 1483 1487 1490 1491 1490 1492 1495 1498 1500 1502 1505 1507 1510 1513 1514 1517 1519 1519 1520 1521 1522 1522 1522 1522 1523 1523 1523 1523 1524 1524 1524 1524 1524 1524 1525 1525 1526 1526 1527 1527 1528 1528 1529 1530 1530
1485 1487 1488 1488 1486 1485 1490 1494 1489 1489 1492 1495 1498 1500 1502 1505 1507 1510 1513 1515 1517 1518 1519 1521 1521 1521 1521 1522 1522 1522 1522 1523 1523 1523 1523 1523 1524 1524 1524 1525 1525 1525 1526 1527 1528 1528 1528 1529 1530
1487 1481 1482 1486 1492 1494 1490 1503 1489 1486 1489 1492 1495 1498 1500 1503 1506 1508 1511 1513 1516 1517 1518 1519 1520 1520 1521 1521 1521 1521 1522 1522 1522 1522 1522 1523 1523 1523 1523 1524 1524 1525 1525 1526 1527 1527 1528 1528 1529
1482 1480 1482 1485 1489 1493 1488 1495 1487 1482 1489 1490 1492 1495 1498 1501 1504 1506 1509 1511 1513 1515 1517 1518 1519 1519 1520 1520 1521 1521 1521 1522 1522 1522 1522 1522 1522 1522 1522 1523 1524 1524 1525 1525 1526 1526 1527 1527 1528
1480 1482 1483 1484 1489 1501 1486 1491 1490 1483 1484 1485 1489 1493 1496 1499 1502 1504 1507 1509 1511 1513 1515 1517 1518 1518 1519 1520 1520 1521 1521 1521 1522 1522 1522 1521 1521 1521 1521 1522 1523 1523 1524 1524 1524 1525 1526 1526 1527
1482 1490 1500 1502 1504 1496 1477 1483 1485 1476 1477 1482 1486 1490 1495 1498 1501 1503 1505 1508 1510 1512 1514 1515 1517 1517 1518 1519 1520 1520 1521 1521 1521 1521 1521 1521 1521 1521 1521 1521 1521 1522 1522 1523 1523 1524 1524 1525 1526
1481 1485 1500 1508 1500 1489 1479 1483 1479 1473 1477 1481 1485 1489 1493 1497 1499 1502 1504 1506 1508 1510 1512 1514 1515 1516 1517 1518 1519 1520 1520 1520 1520 1521 1521 1521 1520 1520 1520 1520 1520 1521 1521 1522 1522 1522 1523 1523 1524
1481 1482 1480 1489 1489 1492 1482 1478 1478 1474 1478 1481 1484 1488 1492 1495 1499 1501 1503 1506 1507 1509 1510 1512 1514 1515 1516 1517 1518 1519 1519 1519 1519 1520 1520 1520 1519 1519 1519 1519 1519 1520 1520 1521 1521 1521 1521 1522 1522
1479 1480 1483 1490 1499 1501 1487 1481 1483 1479 1479 1481 1484 1488 1491 1494 1497 1500 1502 1504 1506 1508 1509 1511 1513 1514 1515 1516 1516 1517 1517 1518 1518 1518 1518 1518 1518 1518 1518 1518 1518 1518 1519 1519 1519 1520 1520 1520 1521
1481 1483 1483 1485 1486 1497 1499 1491 1472 1474 1476 1479 1483 1487 1490 1493 1496 1499 1501 1503 1505 1506 1508 1509 1511 1512 1513 1514 1515 1515 1516 1516 1517 1517 1517 1517 1517 1517 1517 1517 1517 1517 1517 1517 1518 1518 1518 1518 1519
1475 1478 1482 1493 1491 1486 1493 1491 1469 1472 1475 1479 1483 1486 1490 1493 1495 1497 1500 1502 1503 1505 1506 1507 1509 1510 1511 1512 1513 1514 1514 1514 1515 1515 1516 1516 1516 1516 1516 1516 1516 1516 1516 1516 1516 1516 1516 1516 1517